Location: Tel Aviv
(32.0670°N, 34.7670°E)
Time: 02:43:59
(UTC+02:00)

Transit 4A - Pass Details

Date: 10 December 2023
Orbit: 869 x 974 km, 66.8° (Epoch: 23 February)

Event Time Altitude Azimuth Distance (km) Brightness Sun altitude
Rises 18:59:16 0° 232° (SW) 3,655 11.9 -29.4°
Reaches altitude 10° 19:02:08 10° 243° (WSW) 2,712 11.2 -30.0°
Maximum altitude 19:07:40 31° 303° (WNW) 1,638 9.5 -31.2°
Enters shadow 19:10:47 21° 347° (NNW) 2,038 9.7 -31.8°
